Flag for Canada Weather past 2 weeks in Granby, Quebec, Canada

Now
66 °F

Mild.


Feels Like: 66 °F
Forecast: 67 / 85 °F
Wind: 3 mph from South

Location: Frelighsburg

Current Time: Jul 29, 2015 at 6:28:32 AM

Latest Report: Jul 29, 2015 at 5:00 AM


Visibility: N/A

Pressure: 29.95 "Hg

Humidity: 95%

Dew point: 65 °F

Location of GranbyLocation

Historic Weather in Granby — Graph

°F

Granby temperature yesterday

Maximum temperature yesterday: 81 °F (at 5:00 PM)
Minimum temperature yesterday: 63 °F (at 3:00 AM)
Average temperature yesterday: 72 °F

Past Weeks' High & Low Weather Summary

 TemperatureHumidityPressure
High82 °F (Jul 19, 3:00 PM)100% (Jul 18, 7:00 AM)30.13 "Hg (Jul 18, 7:00 AM)
Low47 °F (Jul 16, 5:00 AM)45% (Jul 17, 11:00 AM)29.53 "Hg (Jul 21, 5:00 PM)
Average67 °F81%29.85 "Hg
* Reported Jul 14 5:00 AM — Jul 29 5:00 AM, Granby, Weather by CustomWeather, © 2015

Note: Actual official high and low records may vary slightly from our data, if they occured in-between our weather recording intervals... More about our weather records

Advertising

Granby weather history for previous 24 hours

 ConditionsComfort  
Time TempWeatherWind HumidityBarometerVisibility
5:00 AM
Wed, Jul 29
66 °FMild.3 mph95%29.95 "HgN/A
4:00 AM68 °FMild.3 mph94%29.94 "HgN/A
3:00 AM68 °FMild.3 mph95%29.95 "HgN/A
2:00 AM68 °FMild.3 mph95%29.95 "HgN/A
1:00 AM68 °FMild.3 mph96%29.96 "HgN/A
12:00 AM69 °FMild.3 mph97%29.95 "HgN/A
11:00 PM
Tue, Jul 28
71 °FMild.5 mph91%29.95 "HgN/A
10:00 PM71 °FMild.3 mph87%29.94 "HgN/A
9:00 PM72 °FMild.2 mph93%29.95 "HgN/A
8:00 PM77 °FMild.1 mph85%29.95 "HgN/A
7:00 PM81 °FWarm.2 mph70%29.94 "HgN/A
6:00 PM80 °FWarm.2 mph65%29.94 "HgN/A
5:00 PM81 °FWarm.3 mph68%29.94 "HgN/A
4:00 PM80 °FWarm.3 mph66%29.94 "HgN/A
3:00 PM80 °FWarm.3 mph64%29.96 "HgN/A
2:00 PM79 °FWarm.3 mph70%29.96 "HgN/A
1:00 PM78 °FWarm.5 mph68%29.96 "HgN/A
12:00 PM77 °FWarm.3 mph73%29.98 "HgN/A
11:00 AM76 °FMild.1 mph75%29.98 "HgN/A
10:00 AM73 °FMild.5 mph78%29.98 "HgN/A
9:00 AM71 °FMild.3 mph84%30.00 "HgN/A
8:00 AM69 °FMild.3 mph88%30.00 "HgN/A
7:00 AM65 °FMild.5 mph94%29.99 "HgN/A
6:00 AM63 °FMild.5 mph98%29.98 "HgN/A
Weather by CustomWeather, © 2015

See weather overviewHow to use our weather pages